Lapse_Rate
6.8 7.5 7.1 7.4 6.9 7.1 7.7 7.9 7.5 7.4 7.6 7.4 6.8 6.5 6.3 6.0 5.4 3.4 2.9 1.7 1.9 2.6 4.8 4.8 5.3 4.8 5.0 4.5 6.5 5.5 5.9 5.4 6.2 6.5 6.5 6.5 6.5 6.5 6.5 6.5 6.5 6.5 6.5 6.5 6.5 6.5 6.5 6.8 6.6 6.5 6.7 6.8 6.9 6.7
6.7 7.0 7.6 7.6 6.9 7.3 7.8 7.6 7.5 7.5 7.3 7.2 7.0 6.7 6.5 6.2 5.7 4.7 3.3 2.5 1.4 1.9 3.9 2.7 3.6 4.0 5.4 4.8 3.6 4.2 5.6 5.9 5.5 6.5 6.5 6.5 6.5 6.5 6.5 6.5 6.5 6.5 6.5 6.5 6.5 6.5 6.7 7.0 6.9 6.9 6.8 7.0 6.9 7.1
6.6 6.7 7.7 7.8 7.6 7.0 7.9 7.5 7.5 7.5 7.5 7.6 7.2 7.0 6.9 6.5 5.9 4.5 2.8 2.0 1.4 1.5 3.4 3.9 5.6 3.8 2.3 3.8 4.0 4.2 3.9 5.1 4.9 3.8 5.4 6.5 6.5 6.5 6.5 6.5 6.5 6.5 6.4 6.5 6.5 6.5 6.7 6.9 6.9 6.9 6.9 6.9 6.6 6.1
6.6 7.3 7.8 7.8 7.2 6.9 7.8 7.8 7.4 7.7 7.6 7.5 7.4 7.3 7.2 6.7 6.1 4.5 2.9 1.9 2.2 2.3 4.4 5.7 5.0 4.9 3.7 2.9 3.8 4.9 5.0 4.8 3.8 3.0 5.2 6.5 6.5 6.0 6.5 6.5 6.5 6.6 6.6 6.5 6.5 6.6 6.8 6.9 6.8 6.4 6.9 6.6 7.0 6.2
6.4 7.3 7.5 7.3 7.0 6.9 6.9 7.0 7.6 7.7 7.7 7.5 7.6 7.5 7.0 6.5 5.9 4.5 2.7 2.3 2.4 3.2 5.1 4.6 3.6 4.6 4.2 3.3 3.7 4.4 4.3 4.2 3.3 2.6 6.1 6.5 5.6 6.2 6.2 6.5 6.5 6.6 6.5 6.5 6.5 6.7 6.7 6.8 6.8 6.8 6.4 7.0 6.5 6.9
6.5 6.5 6.7 7.1 7.0 7.1 7.6 7.6 7.5 7.6 7.6 7.6 7.7 7.7 7.2 6.6 5.7 3.6 3.3 3.3 3.8 3.0 2.1 6.5 3.5 4.8 3.7 3.6 4.8 4.4 4.2 4.2 4.2 4.2 2.5 2.3 4.2 4.9 6.5 6.5 6.3 6.3 6.5 6.2 6.6 6.1 5.9 5.8 6.5 5.8 6.4 5.9 6.3 6.0
7.3 7.1 6.8 6.7 6.7 7.5 7.4 7.1 7.3 7.4 7.6 7.7 7.8 7.8 7.1 6.6 4.6 3.6 4.5 5.7 5.1 3.2 3.1 5.3 5.9 5.2 6.1 5.1 3.1 4.8 5.9 5.3 5.4 5.4 5.2 5.2 5.0 5.2 6.5 6.5 6.4 6.5 6.2 6.3 6.2 6.2 6.2 5.7 5.3 6.4 6.1 5.5 5.8 5.4
7.0 6.6 6.2 6.5 6.7 7.4 7.3 7.1 7.2 7.3 7.5 7.8 7.7 7.4 7.2 7.1 5.7 5.3 6.2 6.7 6.2 5.1 5.2 6.5 6.5 5.7 6.7 5.2 5.6 3.8 5.7 6.0 5.8 6.1 5.4 5.8 5.4 5.5 6.5 6.5 6.6 7.0 6.8 6.2 4.5 3.8 3.3 3.9 4.2 4.6 5.6 5.7 5.5 5.3
6.7 6.6 6.8 6.7 6.8 7.2 7.4 7.4 7.3 7.3 7.5 7.6 7.5 7.1 5.4 4.4 4.4 5.9 6.4 6.7 5.8 5.1 5.2 5.0 6.5 6.5 5.3 5.1 4.6 4.1 3.9 6.4 4.7 6.1 6.1 5.6 6.5 6.5 6.4 6.8 6.4 5.7 6.4 6.2 5.3 4.6 4.8 4.3 4.2 4.4 4.8 5.2 5.6 6.1
7.0 6.5 6.5 6.5 6.6 6.9 7.7 7.4 7.3 7.3 7.5 7.1 5.6 4.3 3.2 4.3 6.1 7.0 6.3 5.8 5.0 6.2 5.7 5.5 5.1 6.5 6.2 5.2 6.6 4.7 6.1 6.5 6.5 6.4 5.1 6.5 6.5 5.8 5.6 4.9 4.5 4.5 4.8 6.2 6.0 7.0 6.3 5.3 5.1 5.2 5.2 5.6 5.7 6.0
7.3 7.2 6.7 6.4 6.3 6.9 7.7 7.6 7.4 7.2 6.3 4.5 3.1 4.7 5.2 6.2 5.1 4.7 4.4 5.2 6.5 6.3 6.0 6.0 5.4 6.4 4.6 6.3 6.5 3.9 6.5 6.5 6.5 6.5 6.5 6.5 6.5 6.3 5.6 4.5 3.8 3.5 3.1 3.0 3.8 4.6 5.7 5.7 5.5 5.5 5.3 5.3 5.3 5.1
7.0 6.7 7.1 6.7 6.3 7.0 7.6 7.4 7.0 4.3 4.3 4.5 4.8 5.4 4.9 5.2 5.3 6.2 6.5 6.2 6.5 6.5 6.1 6.6 5.8 4.5 4.4 2.3 4.9 6.3 6.5 6.5 6.5 6.1 6.5 6.5 6.5 6.1 5.0 4.3 3.5 3.0 3.0 3.1 3.8 3.8 4.5 4.9 5.0 4.5 4.2 3.9 3.6 3.4
7.0 6.5 6.1 6.5 6.6 7.1 7.4 7.1 6.7 5.8 5.4 3.8 3.6 4.0 4.0 5.4 6.5 6.5 6.5 6.5 6.5 5.5 5.3 6.0 6.2 3.6 4.9 3.8 6.3 6.5 6.5 6.5 4.8 6.5 6.5 6.5 5.8 6.5 4.9 4.0 3.5 3.6 3.6 3.3 2.9 2.8 2.3 1.1 1.0 1.7 0.4 -1.0 -1.2 -1.1
7.2 6.3 5.9 6.9 7.0 6.8 7.2 7.8 6.7 5.2 2.8 1.2 2.5 6.5 6.5 6.5 6.5 6.5 6.5 6.4 3.9 2.9 2.7 1.8 5.1 3.4 2.2 5.3 5.6 6.5 6.5 6.3 6.5 6.5 6.5 6.4 5.6 5.0 4.3 3.8 2.9 2.0 1.2 1.0 -0.1 -0.1 -0.3 -0.6 -3.5 -5.0 -5.2 -5.5 -2.8 -2.1
7.9 6.6 6.1 6.7 6.1 7.4 7.8 7.3 6.2 2.9 1.7 3.6 4.0 6.5 6.5 3.7 4.3 4.9 3.2 4.4 2.9 5.3 2.9 2.8 3.8 4.6 6.2 6.5 6.5 6.5 6.5 6.5 6.5 6.5 6.5 1.5 3.7 3.5 3.2 2.6 1.2 0.6 -0.7 -0.9 -2.1 -1.6 -2.8 -2.8 -1.1 -3.5 -5.1 -4.6 -2.7 -4.7
8.3 7.8 6.8 6.6 5.5 6.7 6.7 6.3 4.5 3.3 2.9 4.0 6.9 6.3 3.6 5.9 3.6 1.4 5.4 6.6 3.8 3.4 4.1 4.0 6.4 6.5 6.5 6.5 6.5 6.5 6.5 6.5 6.5 6.4 -0.7 2.3 2.7 2.0 1.3 1.0 0.3 -0.5 -0.8 -1.5 -1.3 -1.0 -1.4 -1.4 -0.8 -1.9 -4.0 -3.3 -4.4 -3.5
6.8 5.5 8.7 7.7 6.1 5.8 5.9 5.1 4.9 4.4 3.6 5.5 5.8 6.5 6.9 4.5 4.2 3.2 5.5 6.2 4.8 5.2 6.5 6.4 6.5 6.5 6.5 6.5 6.5 6.5 6.5 6.5 -0.6 -2.3 -0.5 1.0 0.8 0.3 -0.4 -0.3 -0.8 -0.5 -0.6 -0.5 -1.2 -0.8 -2.1 -1.9 -1.1 1.4 1.2 -0.6 -0.8 -1.5
4.5 7.0 8.0 7.2 5.7 5.7 5.3 5.1 5.0 5.2 4.8 2.3 2.9 -0.1 0.6 4.1 5.8 5.8 5.0 5.2 5.3 6.0 5.3 6.0 3.9 6.5 6.5 6.5 6.5 5.8 -0.0 -2.1 -1.2 -2.3 -3.0 -1.9 -1.0 -0.8 -0.1 -1.0 -0.8 -0.1 -0.2 -0.6 -0.5 -1.7 -1.4 -1.1 1.0 0.1 0.4 -0.1 0.4 0.5
5.4 6.8 7.4 6.9 5.8 6.0 6.2 5.9 5.4 4.4 2.4 1.2 -0.0 1.6 3.8 4.2 3.4 2.2 2.0 3.6 4.4 4.9 5.1 3.5 6.5 6.5 6.5 2.5 1.2 -4.0 -5.0 -2.5 -1.4 -2.8 -4.4 -5.1 -1.3 -0.7 -1.9 -1.1 -1.0 -1.6 -0.2 -1.2 -0.5 0.6 0.6 1.0 1.9 1.9 2.2 2.6 2.4 2.2
7.2 7.1 7.5 7.1 6.4 6.1 6.2 5.9 4.5 5.2 4.4 2.7 2.4 3.9 3.3 3.7 2.8 1.9 4.0 3.6 5.1 5.9 6.2 6.4 6.5 1.3 0.0 -2.4 -3.7 -4.2 -4.9 -3.0 -2.0 -0.5 -2.5 -3.5 -4.1 -1.1 -0.7 -0.1 0.2 -0.3 0.3 -0.4 0.0 1.1 1.3 1.3 1.5 2.3 2.5 3.0 2.5 2.4
7.1 7.2 7.5 6.3 6.2 6.4 5.6 5.2 5.5 4.9 4.2 3.7 4.0 5.4 3.1 4.4 4.1 2.6 3.3 5.1 6.2 5.8 6.2 1.2 -3.3 -6.1 -5.4 -7.5 -6.1 -4.7 -3.2 -1.6 -1.2 -1.1 -0.7 -0.5 -2.7 0.7 -0.4 -0.1 0.3 1.5 1.3 0.7 1.5 0.2 0.8 1.5 1.8 2.6 -0.8 -1.9 -2.7 -1.6
6.6 7.1 5.7 6.0 6.0 6.6 7.2 5.4 5.2 4.3 4.6 5.2 5.4 5.7 4.2 3.4 2.9 4.6 4.0 4.7 4.7 2.7 -0.1 -2.3 -3.8 -1.5 -4.6 -4.7 -5.5 -3.9 -3.2 -2.2 -1.9 -1.5 -2.1 -1.5 -0.3 0.6 1.3 0.4 1.8 1.3 1.4 0.7 1.6 0.9 1.0 1.9 1.4 1.1 -1.3 -3.9 -2.9 -2.4
6.8 5.9 5.1 5.1 4.6 5.7 5.4 5.7 5.4 5.7 6.5 5.7 6.6 6.2 5.9 4.5 3.7 4.7 4.3 3.8 1.7 -1.6 -3.3 -2.7 -3.4 -4.0 -4.2 -6.2 -3.3 -3.5 -3.2 -0.5 -1.2 -1.1 -1.1 -0.1 0.0 -0.5 0.5 0.4 1.3 0.8 1.8 1.8 2.4 1.8 0.9 0.3 0.2 0.2 -2.6 -3.5 -3.0 -4.0
6.1 3.5 4.0 3.5 4.0 3.4 5.1 5.4 6.2 6.4 5.9 6.4 6.5 6.5 6.5 5.4 4.7 3.9 6.5 2.5 -0.1 0.2 0.2 -1.0 -0.1 -0.9 -0.8 -0.3 -2.3 -2.7 -2.6 -0.9 -0.5 -0.8 -0.0 0.3 0.2 0.6 1.0 1.4 1.7 2.2 2.9 2.5 2.7 1.4 0.2 -0.3 -0.6 -0.4 -3.0 -4.7 -5.6 -3.6
4.0 3.2 4.0 5.7 6.2 5.9 6.5 6.5 6.4 6.5 6.5 6.5 6.5 6.5 6.6 4.1 6.5 6.5 6.5 2.4 5.7 6.9 5.2 3.0 2.2 1.6 0.3 -2.8 -2.6 -1.7 -0.2 0.8 0.7 0.5 -0.7 1.7 1.0 0.9 1.7 2.1 2.2 2.5 2.1 0.8 -1.1 -1.9 -3.7 -3.2 -1.2 -1.2 -2.2 -2.4 0.1 -1.4
6.5 1.3 5.5 5.3 5.2 6.4 6.5 6.5 6.5 6.5 6.5 6.5 6.4 3.2 1.9 6.5 6.5 6.5 6.2 4.6 4.5 6.1 6.1 6.1 6.1 4.8 2.2 1.3 0.7 0.3 0.3 0.8 2.0 1.5 0.8 2.0 1.9 1.9 1.7 2.0 1.7 1.3 1.0 1.5 0.6 0.2 -0.1 -0.6 -0.5 0.0 -0.2 -0.2 -0.7 0.0
6.5 6.0 5.8 6.0 6.3 6.5 6.2 5.6 5.9 6.0 6.5 6.5 6.5 6.4 6.5 6.5 6.5 5.6 4.3 3.8 4.7 4.0 3.8 3.2 5.7 5.8 5.0 2.9 1.5 0.6 1.2 1.6 1.1 1.1 1.0 1.5 1.5 2.1 2.7 2.0 1.5 1.5 0.5 0.9 1.2 1.7 2.2 1.0 0.7 1.3 1.5 0.2 0.2 0.9
4.3 5.1 6.5 4.7 6.0 5.7 6.5 6.5 6.5 6.5 6.5 4.9 5.1 6.5 6.5 6.5 6.5 3.3 2.7 2.2 2.1 2.8 3.7 3.3 3.5 3.7 3.5 2.5 1.3 0.7 -0.8 -1.5 -1.1 -0.2 0.2 -0.8 -2.8 -3.6 -2.0 -1.2 -0.8 1.7 1.4 1.6 1.4 0.6 1.4 1.7 1.5 1.3 2.0 2.4 2.7 1.0
5.4 5.2 5.0 5.0 4.3 4.1 4.2 6.2 6.1 4.9 4.3 5.0 6.3 6.5 5.2 5.5 3.0 2.1 1.2 0.4 0.4 2.9 2.3 2.1 0.8 0.4 0.7 0.2 -0.2 -0.1 0.9 1.6 1.0 0.3 -0.2 -1.1 -1.5 -0.3 -4.5 -3.9 -1.2 -0.6 -0.3 -0.6 0.5 0.6 1.0 1.2 1.3 1.3 1.6 1.9 2.0 0.9
4.0 4.2 3.3 3.6 6.4 6.5 3.7 3.1 3.1 1.6 3.0 3.3 4.0 4.9 5.3 4.1 2.9 1.7 0.4 -0.5 -0.8 -0.3 1.4 0.3 -0.4 -1.0 -0.4 0.5 0.0 0.4 -0.9 -1.1 -0.8 1.8 2.6 1.4 1.2 -3.0 -3.0 -3.1 -3.1 -4.4 -2.8 -1.0 -0.6 0.3 1.4 -1.2 -0.8 -2.5 -1.8 -1.9 -1.1 -0.2
5.8 5.8 5.8 5.6 6.0 3.4 2.9 1.3 0.5 1.3 1.8 1.7 1.3 2.8 4.2 3.9 2.9 1.5 0.4 -0.2 0.5 0.2 -0.5 -0.5 2.4 2.0 1.8 1.6 0.4 0.2 0.9 -1.1 -2.2 -1.3 -1.8 -2.5 -2.8 -1.7 -2.8 -4.0 -5.0 -3.3 -2.2 -1.4 -1.2 -1.7 -1.3 -2.5 -2.3 -1.2 0.4 0.8 1.3 2.0
5.0 5.6 6.3 6.5 6.4 4.6 3.6 3.6 2.7 2.1 2.2 2.5 2.4 1.3 2.1 2.1 2.2 2.4 1.7 0.5 0.6 -0.1 -0.0 0.3 -0.5 -1.6 -0.9 2.4 3.0 2.9 1.7 0.7 0.3 -0.4 -0.1 -1.7 -2.6 -3.3 -2.2 -2.7 -3.4 -2.9 -2.0 -1.3 -1.5 -2.4 -1.8 -0.8 -0.9 0.2 1.1 2.0 2.0 2.5
3.0 2.9 1.9 3.4 4.7 4.9 4.0 3.7 4.0 4.0 2.5 2.1 1.5 0.4 -0.9 0.7 3.6 2.6 1.9 2.1 0.8 1.1 0.6 0.2 0.7 0.2 -0.3 -0.8 -0.9 -0.8 -1.9 -3.1 -1.2 0.0 -0.6 -0.6 -1.2 -0.7 -1.3 -1.0 -1.6 -1.7 -1.0 -0.8 -0.9 -0.2 0.2 0.1 -0.1 0.3 1.0 1.7 2.4 3.0
Wind_Speed
24 24 25 21 22 22 22 21 22 19 17 14 10 8 9 9 6 4 1 5 3 3 1 2 2 4 3 2 3 2 3 3 3 3 1 0 1 1 1 1 1 2 3 2 3 2 2 13 3 4 4 3 7 8
29 20 26 22 22 22 22 20 22 20 17 14 11 9 10 10 7 5 3 3 2 4 3 1 2 1 4 5 4 2 3 2 2 3 1 1 1 2 1 1 3 1 1 2 1 1 4 5 6 5 7 5 6 9
24 22 26 27 25 21 21 22 21 20 18 15 13 11 11 9 7 6 3 2 3 3 3 3 3 4 4 3 2 4 1 2 2 2 3 1 1 3 1 1 0 1 3 1 2 3 4 5 5 7 6 7 8 7
22 26 28 28 25 21 20 23 19 21 18 16 14 13 12 11 10 10 3 1 3 3 3 0 2 3 3 5 3 3 4 3 4 2 2 2 1 1 1 1 2 0 2 1 1 3 5 5 5 4 4 5 5 7
17 25 29 29 28 27 24 22 20 21 19 17 16 14 13 14 16 14 4 4 3 3 3 1 2 2 2 5 6 5 4 3 2 2 2 1 1 1 0 1 1 1 2 1 2 1 1 3 5 5 3 5 6 7
24 22 23 27 27 27 26 23 22 21 19 18 17 14 12 12 7 4 3 3 6 2 3 2 2 3 3 6 6 6 3 2 2 2 2 2 2 2 2 1 3 4 3 1 3 3 5 4 4 5 4 7 8 8
21 19 25 30 27 28 28 25 23 22 20 19 17 16 12 10 5 3 3 1 1 2 3 2 2 3 4 4 3 2 1 1 2 1 0 1 2 2 1 2 3 6 6 5 5 6 4 5 3 6 10 10 9 8
18 18 30 32 28 28 28 26 24 22 21 20 19 16 14 14 8 4 3 4 4 3 3 3 1 1 0 2 2 2 2 0 2 1 1 1 1 1 1 2 7 7 7 6 6 6 5 6 5 7 7 6 8 7
19 18 24 33 29 29 29 27 24 22 23 22 21 12 5 4 3 2 6 12 8 3 3 2 3 3 2 2 2 2 2 1 2 1 2 2 1 4 3 6 7 4 3 9 7 7 7 8 6 5 6 7 6 7
20 19 26 27 31 31 29 27 25 27 26 19 6 3 3 1 2 9 3 2 3 2 1 1 1 2 3 2 1 2 2 0 0 3 2 2 2 3 3 6 6 5 4 7 9 6 5 4 6 6 7 7 6 6
21 21 24 28 27 32 30 29 28 27 11 3 2 2 2 2 2 2 2 2 1 1 2 2 3 2 1 3 3 1 2 2 1 2 2 2 3 4 7 7 5 6 7 7 7 6 6 6 6 6 7 7 7 7
19 18 22 28 29 31 31 31 26 5 3 4 4 4 2 3 2 4 1 1 1 2 2 3 3 3 1 2 3 2 2 1 2 2 1 3 2 7 8 8 7 6 7 8 7 7 7 8 7 7 7 6 6 5
19 18 16 25 28 31 32 29 13 20 13 3 4 3 3 1 4 4 4 2 2 2 4 3 2 3 1 3 3 2 3 3 2 0 3 3 4 7 8 8 8 7 8 9 8 8 8 6 7 6 6 3 3 4
21 19 14 12 28 31 28 22 21 7 4 3 3 3 3 2 3 4 2 2 2 2 2 2 3 3 1 3 2 4 3 1 2 2 5 3 7 9 8 7 8 6 6 7 7 6 7 7 5 4 4 2 4 4
21 22 14 11 11 30 26 20 9 4 3 3 3 2 3 2 3 2 2 0 2 3 2 2 2 2 2 3 1 3 2 3 5 4 3 3 10 9 9 7 8 7 6 6 4 5 6 5 5 4 2 2 4 3
22 16 5 17 16 24 21 12 5 2 2 3 2 2 1 2 3 3 2 3 1 3 2 1 2 3 1 4 3 5 3 5 4 3 2 6 10 8 8 7 6 7 7 6 5 5 5 5 5 5 3 3 3 3
10 2 14 23 23 20 14 4 3 3 3 2 1 2 0 1 3 2 2 2 1 2 2 2 3 5 3 2 3 4 5 4 3 2 2 6 11 10 8 7 7 8 7 6 5 4 4 4 5 3 5 2 3 3
3 11 18 25 12 6 2 2 2 2 1 2 2 3 2 2 1 2 1 1 1 2 3 3 4 2 4 4 3 4 2 1 0 2 3 4 6 7 8 10 8 8 8 6 5 5 5 5 5 3 3 4 3 2
9 15 22 20 6 4 2 1 0 2 3 2 2 1 1 1 1 0 1 2 2 1 0 0 3 3 4 3 4 3 3 3 3 3 2 1 6 9 7 7 8 5 8 6 6 5 4 5 4 3 3 3 3 2
23 21 18 7 5 2 3 2 1 2 2 3 1 1 2 2 1 2 2 2 1 1 2 3 4 4 4 3 4 3 3 5 6 4 1 0 1 7 9 9 7 7 6 4 2 3 3 1 2 3 3 3 3 3
10 7 7 5 2 3 2 2 1 2 1 1 1 2 2 1 1 1 1 2 1 2 2 3 3 3 1 1 1 3 6 8 6 5 6 6 4 6 5 4 6 6 5 4 5 3 3 3 3 3 3 3 2 2
3 7 2 3 2 2 0 2 2 1 2 1 1 1 1 1 1 2 1 1 3 3 3 3 2 3 2 2 3 2 5 6 6 5 7 11 8 6 7 6 7 6 5 5 5 4 4 3 3 3 3 3 2 2
8 3 3 2 3 1 3 1 1 2 2 2 1 1 2 1 2 1 1 3 3 2 2 1 0 1 3 1 4 4 4 8 5 5 5 6 5 5 6 6 6 7 6 4 4 4 3 4 4 4 3 2 2 1
4 3 3 3 3 3 1 2 2 2 1 1 2 2 2 2 1 2 3 2 2 2 3 3 1 2 3 3 2 2 2 4 4 3 5 7 6 5 6 6 6 5 5 4 5 4 4 4 5 4 4 3 3 4
4 4 4 3 2 2 1 2 2 2 3 3 2 3 2 2 1 1 2 3 5 6 3 2 1 1 2 1 1 2 2 5 6 6 3 5 4 5 4 4 4 5 4 4 3 4 3 3 4 5 5 5 6 7
2 4 6 5 3 5 5 3 4 5 3 2 4 2 2 2 0 4 1 3 2 3 6 4 2 1 1 2 3 3 4 3 5 3 3 6 7 8 8 7 5 3 4 4 4 5 6 5 5 7 6 7 6 5
3 3 2 1 1 1 2 1 2 2 3 4 2 1 2 1 4 2 2 2 3 4 7 6 4 3 2 2 1 2 4 5 3 3 3 5 4 5 7 8 8 5 6 7 6 7 8 8 7 8 7 3 5 6
4 2 4 2 1 0 1 2 4 4 2 1 3 2 5 4 3 3 2 4 7 8 6 3 3 1 1 1 3 5 4 4 5 6 5 4 3 1 1 2 2 8 5 7 7 5 6 7 7 6 7 6 5 5
2 1 3 0 0 1 2 3 3 1 1 2 3 3 2 2 2 3 3 8 8 5 3 3 3 2 3 4 4 3 5 6 6 5 4 3 1 3 2 2 3 3 4 4 6 6 8 6 6 6 7 5 3 3
2 2 3 2 3 3 2 2 2 1 1 2 3 2 2 2 1 4 5 6 7 7 5 2 2 3 1 2 2 2 2 2 1 3 4 4 5 2 4 4 4 3 3 5 5 4 6 4 5 3 3 3 2 3
1 2 2 1 1 1 1 1 1 1 2 2 2 3 2 3 2 4 8 7 6 6 8 8 6 5 4 3 2 2 2 1 2 2 1 1 2 3 4 3 3 4 4 5 5 3 3 2 2 3 5 5 5 4
1 1 3 3 1 1 0 0 1 2 1 2 2 2 2 3 3 4 7 7 8 9 9 8 7 5 7 4 2 3 4 1 1 0 1 2 2 2 4 3 4 4 5 5 4 3 3 4 4 4 4 5 4 4
1 1 2 2 1 0 1 1 3 1 3 2 2 2 2 3 2 1 3 4 3 5 7 7 6 5 6 5 4 3 4 3 4 6 5 4 5 5 5 5 4 4 6 5 4 4 5 4 3 3 3 3 3 3
Wind_Direction
181 170 166 170 167 180 180 166 153 146 147 141 135 115 102 94 80 78 104 33 109 98 60 26 92 116 89 102 131 218 56 346 34 64 97 214 105 46 26 106 141 27 334 344 318 326 323 5 28 53 330 33 358 354
175 176 169 172 170 175 169 159 152 150 141 139 136 117 102 93 86 84 67 351 5 82 128 1 319 341 68 163 129 43 147 144 160 91 36 90 33 21 106 239 8 135 354 321 10 40 52 49 47 42 8 7 10 2
173 182 171 168 158 169 161 154 156 148 141 146 138 120 106 88 78 101 107 329 51 78 24 65 76 21 106 180 132 114 295 167 104 161 145 140 137 122 119 265 219 80 355 191 159 127 101 58 47 25 31 20 46 27
178 177 163 160 156 154 153 148 152 144 144 140 132 120 115 98 84 76 76 331 76 100 107 196 358 37 96 116 111 112 123 83 92 69 96 121 158 160 217 231 144 43 27 323 86 118 128 104 80 19 12 55 63 58
183 155 157 151 153 154 154 158 164 143 142 138 132 120 106 98 93 89 85 38 57 112 147 164 336 16 290 145 130 109 70 67 68 41 66 234 241 72 241 54 334 114 132 120 250 45 341 83 53 33 12 50 46 51
169 169 156 154 154 163 160 156 148 143 138 136 132 128 115 103 80 57 45 358 360 80 87 114 307 348 61 111 105 105 117 96 97 120 232 281 269 107 94 231 168 107 109 116 134 107 90 81 59 9 15 90 70 64
151 162 165 155 154 152 147 144 142 139 138 134 126 123 110 87 67 77 127 165 302 61 71 60 28 349 111 106 53 80 104 122 110 129 119 274 308 127 142 236 122 127 126 120 117 118 94 52 36 30 82 75 72 67
127 140 150 151 156 145 140 139 135 136 135 127 118 108 95 93 86 46 18 62 59 71 71 101 285 100 31 69 86 349 102 101 38 62 50 207 334 55 279 159 143 129 117 90 66 65 87 101 66 56 64 73 66 51
119 132 150 158 149 145 138 135 135 136 134 124 118 105 66 39 61 117 108 86 66 94 125 101 139 185 61 86 83 32 48 171 348 179 247 113 308 227 192 157 130 76 100 128 111 99 99 96 90 72 68 58 64 52
130 116 140 141 147 144 137 136 134 131 126 118 64 53 40 312 168 146 40 43 21 41 25 118 120 141 101 68 107 92 71 203 193 241 120 158 242 108 87 93 97 82 61 135 140 145 130 112 100 81 72 70 66 54
107 135 142 149 150 146 138 137 134 126 99 53 81 75 231 173 64 35 65 97 168 186 158 215 179 137 344 126 165 214 166 166 265 267 162 260 266 163 138 114 94 85 80 71 87 82 80 114 120 106 83 69 65 58
109 100 145 147 153 147 141 137 132 98 145 170 125 109 58 54 41 85 202 218 216 217 154 174 205 193 189 103 102 179 158 148 266 181 206 261 235 143 139 130 114 103 100 90 85 89 84 89 91 96 89 80 68 63
115 113 93 150 153 146 141 139 124 121 112 57 59 67 77 6 61 156 195 203 218 171 173 168 174 160 115 64 90 130 175 219 112 255 236 232 163 149 137 133 120 111 110 108 102 98 95 82 68 92 102 68 87 75
125 113 103 123 143 145 141 134 124 99 77 79 103 106 144 163 221 207 175 178 230 102 165 148 123 136 172 71 136 94 238 218 256 243 240 217 169 152 142 137 129 124 120 119 115 109 107 106 99 70 86 131 102 71
127 120 121 119 109 152 138 132 103 65 84 83 76 149 182 236 269 268 191 186 256 119 117 73 63 93 26 96 205 124 111 249 202 230 235 188 151 147 146 140 135 141 137 134 128 123 130 129 117 102 53 84 89 93
115 103 123 143 127 140 126 88 42 66 57 79 91 115 289 61 311 335 260 237 237 118 114 109 123 73 180 146 149 198 201 224 247 218 203 143 149 147 144 142 145 143 147 142 141 140 137 135 138 144 113 99 107 116
75 66 132 141 131 114 75 77 31 45 109 92 150 189 166 210 208 246 315 24 6 117 211 158 122 195 151 176 200 183 209 217 209 215 162 160 160 153 139 136 143 147 148 149 146 145 148 145 134 121 117 201 159 141
63 129 124 122 97 63 62 53 104 120 134 221 121 237 199 200 174 262 238 288 314 223 160 220 136 140 187 189 244 236 189 179 61 143 152 129 128 135 147 151 154 157 156 155 149 148 136 143 156 188 178 197 167 177
131 127 132 136 115 101 86 60 64 133 218 190 254 240 211 229 232 119 232 239 216 243 245 54 123 184 216 215 205 214 202 175 164 169 140 90 143 147 142 141 151 144 158 159 159 170 175 184 187 180 189 173 198 204
133 132 141 117 49 81 110 97 54 136 191 227 87 218 197 204 205 183 214 216 185 256 221 218 201 208 184 219 192 171 154 140 134 121 90 322 158 143 161 163 170 160 154 148 139 140 152 170 204 198 181 187 173 214
99 152 69 48 51 25 71 117 131 202 152 174 227 178 259 348 325 322 297 187 96 226 237 223 219 248 166 270 176 127 144 157 175 163 165 171 188 165 154 152 141 160 165 165 173 189 175 194 195 160 150 171 190 196
93 89 85 38 57 350 270 177 139 157 94 226 110 178 291 288 278 243 268 98 235 240 200 191 221 160 158 181 178 167 144 122 114 103 89 121 156 168 175 169 163 174 176 181 179 183 198 193 162 150 152 178 147 135
105 61 65 48 56 20 272 150 86 187 183 240 156 269 260 276 224 131 246 227 258 327 320 324 208 95 117 185 109 89 116 141 136 137 142 157 151 147 152 163 170 167 179 199 180 174 191 179 171 157 134 128 130 148
72 89 130 165 156 245 184 206 209 148 73 177 195 251 250 235 25 37 253 261 275 287 348 319 113 73 63 96 99 145 142 116 113 101 145 147 152 167 167 172 175 181 184 156 173 172 161 175 152 151 155 149 176 188
83 268 132 252 218 118 171 295 211 156 221 206 171 287 206 87 115 248 240 289 349 0 358 349 15 84 137 115 119 120 162 152 154 159 179 165 137 121 142 159 174 184 153 137 156 170 190 155 170 171 180 184 195 209
160 239 171 196 215 171 191 180 200 192 160 193 230 295 36 102 212 251 265 327 313 343 352 322 235 259 304 168 145 175 181 149 139 136 175 173 172 169 171 174 175 238 195 171 151 176 175 178 180 186 202 212 213 199
244 258 206 204 289 206 135 126 138 130 171 207 215 114 90 210 242 268 330 17 331 323 319 296 272 213 195 185 98 102 137 143 154 176 160 160 164 170 168 172 194 211 168 178 174 174 182 186 192 197 207 201 213 204
211 171 176 239 193 21 208 181 180 193 202 152 106 170 180 198 235 302 287 331 329 314 307 328 1 51 107 136 122 120 88 95 87 87 82 59 49 59 137 140 126 146 160 176 177 162 166 175 183 187 191 202 216 195
205 186 121 154 250 340 218 205 198 139 117 153 148 151 142 68 346 328 315 324 316 315 332 345 6 22 54 58 57 55 136 147 124 121 148 188 279 265 193 168 158 156 153 150 168 167 174 168 174 179 185 187 176 139
242 148 103 153 168 227 244 165 193 245 19 84 101 98 85 92 52 351 351 352 1 349 337 332 341 11 180 130 121 48 23 25 35 146 171 196 222 196 164 174 178 158 132 131 126 104 100 91 92 77 109 121 135 149
110 112 96 115 184 250 267 329 282 111 52 74 26 100 112 126 115 29 18 356 348 4 20 11 4 19 14 9 13 34 335 358 30 23 44 150 149 157 165 154 137 133 130 130 131 122 117 112 135 144 154 161 167 165
50 154 153 158 167 7 326 53 106 90 40 77 41 60 62 65 47 7 3 356 8 16 5 3 3 332 331 328 15 32 13 30 83 144 148 132 146 132 125 119 120 119 120 119 122 119 120 131 129 143 152 161 169 187
100 89 77 105 108 28 64 78 32 54 43 64 30 91 75 105 121 287 314 3 339 335 343 333 333 336 344 1 18 23 27 33 51 59 67 95 127 126 118 125 121 119 122 123 124 124 135 126 130 145 161 175 173 164